Weather History for Sheridan, WY

Change the Weather History Date:

Monday, October 15, 2012

  Actual Average Record
Temperature  
Mean Temperature 56 °F 46 °F  
Max Temperature 72 °F 60 °F 85 °F (1958)
Min Temperature 40 °F 31 °F 17 °F (1992)
Degree Days  
Heating Degree Days 9 19  
Month to date heating degree days 265 249  
Since 1 July heating degree days 415 552  
Cooling Degree Days 0 0  
Month to date cooling degree days 0 0  
Year to date cooling degree days 664 418  
Growing Degree Days 7 (Base 50)    
Moisture  
Dew Point 36 °F    
Average Humidity 59    
Maximum Humidity 96    
Minimum Humidity 22    
Precipitation  
Precipitation T in 0.05 in 0.90 in (1994)
Month to date precipitation 0.49 0.81  
Year to date precipitation 7.48 12.29  
Sea Level Pressure  
Sea Level Pressure 29.82 in    
Wind  
Wind Speed 4 mph (SSW)    
Max Wind Speed 24 mph    
Max Gust Speed 30 mph    
Visibility 10 miles    
Events      
T = Trace of Precipitation, MM = Missing Value Source: NWS Daily Summary

Daily Weather History Graph

Daily Weather History Graph

Search for Another Location

Airport:

Trip Planner

Search our weather history database for the weather conditions in past years. The results will help you decide how hot, cold, wet, or windy it might be!

Date:

Astronomy

Oct. 15, 2012 Rise Set
Actual Time 7:24 AM MDT 6:22 PM MDT
Civil Twilight 6:54 AM MDT 6:51 PM MDT
Nautical Twilight 6:20 AM MDT 7:25 PM MDT
Astronomical Twilight 5:46 AM MDT 7:59 PM MDT
Moon 7:40 AM MDT (10/15) 6:20 PM MDT (10/15)
Length of Visible Light 11h 57m
Length of Day
10h 58m
New Moon, 0% of the Moon is Illuminated
Oct 15
New Moon
Oct 21
First Quarter
Oct 29
Full
Nov 6
Last Quarter
Nov 13
New

Hourly Weather History & Observations

Time (MDT) Temp. Windchill Dew Point Humidity Pressure Visibility Wind Dir Wind Speed Gust Speed Precip Events Conditions
12:53 AM 45.0 °F 43.5 °F 30.9 °F 58% 29.89 in 10.0 mi South 3.5 mph - N/A   Clear
1:53 AM 48.9 °F - 30.9 °F 50% 29.85 in - South 6.9 mph - N/A   Clear
2:53 AM 54.0 °F - 28.9 °F 38% 29.83 in 10.0 mi Calm Calm - N/A   Clear
3:53 AM 48.0 °F - 34.0 °F 58% 29.83 in 10.0 mi North 4.6 mph - N/A   Clear
4:53 AM 45.0 °F 43.5 °F 34.0 °F 65% 29.83 in 10.0 mi SSW 3.5 mph - N/A   Clear
5:53 AM 46.9 °F - 34.0 °F 61% 29.82 in 10.0 mi SW 4.6 mph - N/A   Clear
6:53 AM 52.0 °F - 30.9 °F 45% 29.83 in 10.0 mi South 4.6 mph - N/A   Clear
7:53 AM 42.1 °F - 35.1 °F 76% 29.88 in 10.0 mi Calm Calm - N/A   Clear
8:53 AM 57.0 °F - 33.1 °F 40% 29.83 in 10.0 mi Calm Calm - N/A   Clear
9:53 AM 61.0 °F - 36.0 °F 39% 29.82 in 10.0 mi Calm Calm - N/A   Clear
10:53 AM 64.9 °F - 35.1 °F 33% 29.82 in 10.0 mi Calm Calm - N/A   Clear
11:53 AM 71.1 °F - 30.0 °F 22% 29.79 in 10.0 mi Calm Calm - N/A   Clear
12:53 PM 70.0 °F - 30.9 °F 24% 29.76 in 10.0 mi East 3.5 mph - N/A   Mostly Cloudy
1:53 PM 70.0 °F - 33.1 °F 26% 29.73 in 10.0 mi ENE 3.5 mph - N/A   Partly Cloudy
2:53 PM 68.0 °F - 32.0 °F 26% 29.71 in 10.0 mi Calm Calm - N/A   Overcast
3:53 PM 64.9 °F - 34.0 °F 32% 29.76 in 10.0 mi North 9.2 mph - N/A   Overcast
4:53 PM 57.9 °F - 43.0 °F 58% 29.82 in 10.0 mi North 16.1 mph 24.2 mph 0.00 in   Overcast
5:53 PM 57.9 °F - 43.0 °F 58% 29.83 in 10.0 mi Variable 4.6 mph - 0.00 in   Overcast
6:53 PM 55.0 °F - 45.0 °F 69% 29.84 in 10.0 mi North - - 0.00 in   Overcast
7:53 PM 48.0 °F - 45.0 °F 89% 29.88 in 10.0 mi South 6.9 mph - N/A   Clear
8:53 PM 43.0 °F 40.3 °F 39.9 °F 89% 29.84 in 10.0 mi SW 4.6 mph - N/A   Clear
9:53 PM 42.1 °F 39.2 °F 41.0 °F 96% 29.83 in 10.0 mi SSW 4.6 mph - N/A   Scattered Clouds
10:53 PM 46.0 °F 41.0 °F 41.0 °F 83% 29.84 in 10.0 mi NW 10.4 mph - N/A   Scattered Clouds
11:53 PM 45.0 °F 41.8 °F 42.1 °F 90% 29.81 in 10.0 mi SSE 5.8 mph - N/A   Overcast